Stations météo

réclame
Mon MeteoGroup
Lulea/Kallax, Suède (2186): Température de l'air & dewpoint: 10.08.2018 10:00:00 - 16.08.2018 10:00:00 (CEST)Lulea/Kallax, Suède (2186): Vitesse du vent & gusts: 10.08.2018 10:00:00 - 16.08.2018 10:00:00 (CEST)Lulea/Kallax, Suède (2186): Direction du vent: 10.08.2018 10:00:00 - 16.08.2018 10:00:00 (CEST)Lulea/Kallax, Suède (2186): reduced air pressure: 10.08.2018 10:00:00 - 16.08.2018 10:00:00 (CEST)Lulea/Kallax, Suède (2186): visibility: 10.08.2018 10:00:00 - 16.08.2018 10:00:00 (CEST)Lulea/Kallax, Suède (2186): Quantités de précipitations: 10.08.2018 10:00:00 - 16.08.2018 10:00:00 (CEST)
Date & Time tt [°C] td [°C] ff [km/h] ff [knt] fx [km/h] fx [knt] dd ppp [hPa] vv [km] rr [mm]
16.08.2018 10:00:00 16,0 12,0 21 11 - - S - 10 -
16.08.2018 09:00:00 15,5 11,3 18 10 25 14 S 1013,0 10 0,0
16.08.2018 08:00:00 15,7 11,1 13 7 22 12 S 1012,7 10 0,0
16.08.2018 07:00:00 14,1 11,3 11 6 18 10 SSE 1012,7 10 0,0
16.08.2018 06:00:00 14,1 12,0 8 4 11 6 S 1012,9 10 0,0
16.08.2018 05:00:00 13,8 11,3 9 5 14 8 S 1012,9 10 0,0
16.08.2018 04:00:00 11,6 10,7 2 1 7 4 - 1012,9 10 0,0
16.08.2018 03:00:00 11,9 10,8 2 1 11 6 - 1013,0 10 0,0
16.08.2018 02:00:00 12,6 10,0 8 4 11 6 S 1013,3 10 0,0
16.08.2018 01:00:00 13,0 9,6 8 4 14 8 S - 10 0,0
16.08.2018 00:00:00 13,6 9,3 9 5 11 6 SSE 1013,3 10 0,0
15.08.2018 23:00:00 14,0 9,2 9 5 18 10 S - 10 0,0
15.08.2018 22:00:00 14,2 9,2 9 5 14 8 SE 1013,1 10 0,0
15.08.2018 21:00:00 13,4 8,2 8 4 11 6 S 1013,2 10 0,0
15.08.2018 20:00:00 13,1 8,0 8 4 18 10 S - 10 0,0
15.08.2018 19:00:00 14,8 8,3 11 6 22 12 SSE 1012,9 10 0,0
15.08.2018 18:00:00 15,1 8,1 13 7 25 14 SSE 1013,0 10 0,0
15.08.2018 17:00:00 15,3 9,0 15 8 25 14 SSE 1013,1 10 0,0
15.08.2018 16:00:00 14,9 8,4 15 8 22 12 SSE 1013,2 10 0,0
15.08.2018 15:00:00 15,2 8,4 16 9 25 14 SSE 1013,0 10 0,0
15.08.2018 14:00:00 15,5 7,8 15 8 25 14 S 1012,9 10 0,0
15.08.2018 13:00:00 15,4 9,1 18 10 29 16 SSE 1012,6 10 0,0
15.08.2018 12:00:00 15,5 10,1 21 11 29 16 SSE 1012,5 10 0,0
15.08.2018 11:00:00 13,9 9,9 18 10 22 12 SSE 1012,6 10 0,9
15.08.2018 10:00:00 14,4 9,2 13 7 18 10 SSE 1012,4 10 0,0
15.08.2018 09:00:00 14,5 8,9 9 5 14 8 SSE 1012,4 10 0,0
15.08.2018 08:00:00 14,1 9,5 5 3 11 6 SE 1012,3 10 0,0
15.08.2018 07:00:00 12,6 10,7 0 0 4 2 N 1012,2 10 0,0
15.08.2018 06:00:00 9,6 9,0 2 1 7 4 - 1012,2 10 0,0
15.08.2018 05:00:00 6,5 5,4 5 3 7 4 NW 1012,1 10 0,0
15.08.2018 04:00:00 6,7 5,5 5 3 7 4 NW 1012,3 10 0,0
15.08.2018 03:00:00 7,0 6,3 4 2 4 2 NW 1012,4 10 0,0
15.08.2018 02:00:00 7,0 6,3 0 0 0 0 N 1012,2 10 0,0
15.08.2018 01:00:00 7,4 6,5 2 1 4 2 NW 1012,1 10 0,0
15.08.2018 00:00:00 7,9 6,8 0 0 7 4 N 1011,7 10 0,0
14.08.2018 23:00:00 8,9 7,3 0 0 4 2 N 1011,7 10 0,0
14.08.2018 22:00:00 10,1 8,0 0 0 11 6 N 1011,7 10 0,0
14.08.2018 21:00:00 12,4 8,7 4 2 11 6 S 1011,5 10 0,0
14.08.2018 20:00:00 13,0 8,5 5 3 22 12 S 1011,3 10 0,0
14.08.2018 19:00:00 13,2 8,3 9 5 18 10 S 1011,0 10 0,0
14.08.2018 18:00:00 14,0 8,2 11 6 14 8 S 1011,0 10 0,0
14.08.2018 17:00:00 14,1 8,7 11 6 22 12 S 1010,8 10 0,0
14.08.2018 16:00:00 13,9 8,3 13 7 22 12 SSW 1010,7 10 0,0
14.08.2018 15:00:00 13,9 7,4 9 5 18 10 S 1010,6 10 0,0
14.08.2018 14:00:00 14,0 7,4 11 6 18 10 SSE 1010,4 10 0,0
14.08.2018 13:00:00 14,2 6,3 8 4 18 10 SE 1010,3 10 0,0
14.08.2018 12:00:00 14,8 7,1 8 4 22 12 N 1010,0 10 0,0
14.08.2018 11:00:00 13,5 7,0 9 5 18 10 N 1009,8 10 0,0
14.08.2018 10:00:00 13,0 7,2 8 4 14 8 NNE 1009,6 10 0,0
14.08.2018 09:00:00 12,2 7,3 8 4 18 10 N 1009,4 10 0,0
14.08.2018 08:00:00 11,2 6,7 9 5 18 10 N 1009,1 10 0,0
14.08.2018 07:00:00 10,8 6,9 9 5 14 8 NNW 1008,7 10 0,0
14.08.2018 06:00:00 10,1 6,8 8 4 14 8 NW 1008,5 10 0,0
14.08.2018 05:00:00 9,9 6,4 8 4 14 8 NNW 1008,1 10 0,0
14.08.2018 04:00:00 10,0 6,5 11 6 14 8 NNW 1007,8 10 0,0
14.08.2018 03:00:00 10,0 6,9 8 4 14 8 NNW 1007,5 10 0,0
14.08.2018 02:00:00 10,3 6,3 11 6 18 10 NNW 1006,9 10 0,0
14.08.2018 01:00:00 10,7 7,0 11 6 18 10 NNW 1006,5 10 0,0
14.08.2018 00:00:00 11,5 6,8 15 8 22 12 NNW 1006,0 10 0,0
13.08.2018 23:00:00 12,6 7,1 15 8 22 12 NNW 1005,6 10 0,0
13.08.2018 22:00:00 13,0 7,7 13 7 25 14 NNW 1005,4 10 0,0
13.08.2018 21:00:00 13,6 7,6 18 10 25 14 NNW 1004,9 10 0,0
13.08.2018 20:00:00 15,1 6,1 13 7 22 12 NNW 1004,1 10 0,0
13.08.2018 19:00:00 16,0 5,0 15 8 25 14 NNW 1003,6 10 0,0
13.08.2018 18:00:00 17,0 5,6 15 8 29 16 N 1003,4 10 0,0
13.08.2018 17:00:00 17,2 5,5 15 8 36 19 N 1003,0 10 0,0
13.08.2018 16:00:00 17,0 5,1 26 14 36 19 NNW 1002,6 10 0,0
13.08.2018 15:00:00 17,4 5,3 21 11 32 18 NNW 1002,2 10 0,0
13.08.2018 14:00:00 16,1 6,2 24 13 43 23 NNW 1002,1 10 0,0
13.08.2018 13:00:00 15,8 6,8 18 10 43 23 NNW 1001,6 10 0,0
13.08.2018 12:00:00 16,5 8,2 18 10 40 21 NNW 1001,1 10 0,0
13.08.2018 11:00:00 16,1 7,6 28 15 40 21 NNW 1000,5 10 0,0
13.08.2018 10:00:00 14,8 7,8 21 11 43 23 NNW 1000,2 10 0,0
13.08.2018 09:00:00 14,2 7,9 22 12 43 23 N 999,2 10 0,0
13.08.2018 08:00:00 12,8 7,7 24 13 40 21 NNW 998,9 10 0,0
13.08.2018 07:00:00 12,0 7,9 24 13 40 21 NNW 998,7 10 0,0
13.08.2018 06:00:00 12,1 8,6 22 12 36 19 NNW 998,1 10 0,0
13.08.2018 05:00:00 12,6 9,2 21 11 36 19 NNW 997,8 10 0,0
13.08.2018 04:00:00 12,8 10,5 21 11 32 18 NNW 997,7 10 0,0
13.08.2018 03:00:00 13,4 11,1 21 11 32 18 NNW 997,2 10 0,0
13.08.2018 02:00:00 13,6 10,9 16 9 29 16 NNW 997,0 10 0,0
13.08.2018 01:00:00 13,7 10,3 13 7 22 12 NNW 997,2 10 0,0
13.08.2018 00:00:00 13,7 9,5 9 5 14 8 WNW 997,1 10 0,0
12.08.2018 23:00:00 13,8 9,2 8 4 14 8 WNW 997,3 10 0,0
12.08.2018 22:00:00 14,3 9,1 8 4 18 10 W 997,5 10 0,0
12.08.2018 21:00:00 14,8 9,0 8 4 18 10 W 997,8 10 0,0
12.08.2018 20:00:00 15,8 8,8 8 4 14 8 WNW 998,2 10 0,0
12.08.2018 19:00:00 16,5 8,7 9 5 14 8 W 998,4 10 0,0
12.08.2018 18:00:00 16,3 7,8 11 6 25 14 W 998,9 10 0,0
12.08.2018 17:00:00 16,8 6,9 13 7 25 14 W 999,3 10 0,0
12.08.2018 16:00:00 17,0 6,8 21 11 29 16 W 999,4 10 0,0
12.08.2018 15:00:00 17,1 6,6 16 9 32 18 W 999,7 10 0,0
12.08.2018 14:00:00 17,4 6,3 18 10 36 19 W 1000,1 10 0,0
12.08.2018 13:00:00 17,0 6,5 18 10 32 18 W 1000,3 10 0,0
12.08.2018 12:00:00 16,7 6,8 21 11 36 19 W 1000,5 10 0,0
12.08.2018 11:00:00 16,8 6,9 16 9 32 18 W 1000,9 10 0,0
12.08.2018 10:00:00 15,0 6,8 16 9 25 14 W 1001,3 10 0,0
12.08.2018 09:00:00 14,3 6,9 16 9 29 16 W 1001,4 10 0,0
12.08.2018 08:00:00 13,3 6,9 16 9 29 16 W 1002,0 10 0,0
12.08.2018 07:00:00 12,1 6,4 11 6 22 12 W 1002,3 10 0,0
12.08.2018 06:00:00 11,1 6,4 11 6 22 12 W 1002,5 10 0,0
12.08.2018 05:00:00 10,7 6,3 8 4 22 12 W 1003,0 10 0,0
12.08.2018 04:00:00 10,9 6,1 15 8 25 14 W 1003,1 10 0,0
12.08.2018 03:00:00 11,6 6,1 13 7 32 18 W 1003,6 10 0,0
12.08.2018 02:00:00 12,1 5,9 18 10 32 18 WSW 1003,7 10 0,0
12.08.2018 01:00:00 12,6 6,0 18 10 36 19 W 1004,0 10 0,0
12.08.2018 00:00:00 13,3 5,7 21 11 36 19 W 1004,0 10 0,0
11.08.2018 23:00:00 13,8 5,7 15 8 43 23 W 1004,5 10 0,0
11.08.2018 22:00:00 14,6 5,4 22 12 43 23 W 1004,7 10 0,0
11.08.2018 21:00:00 15,6 6,3 22 12 50 27 W 1004,4 10 0,0
11.08.2018 20:00:00 16,9 6,7 26 14 54 29 W 1003,9 10 0,0
11.08.2018 19:00:00 18,0 7,1 29 16 47 25 WSW 1003,1 10 0,0
11.08.2018 18:00:00 18,7 7,8 28 15 54 29 WSW 1002,7 10 0,0
11.08.2018 17:00:00 18,5 8,2 29 16 58 31 SW 1002,3 10 0,0
11.08.2018 16:00:00 18,4 8,6 29 16 54 29 SW 1001,9 10 0,0
11.08.2018 15:00:00 18,4 8,9 28 15 50 27 WSW 1001,3 10 0,0
11.08.2018 14:00:00 18,2 9,8 28 15 47 25 SSW 1000,8 10 0,0
11.08.2018 13:00:00 17,7 11,0 22 12 47 25 SSW 1000,3 10 0,0
11.08.2018 12:00:00 18,1 10,2 28 15 47 25 SSW 999,8 10 0,0
11.08.2018 11:00:00 17,3 10,9 28 15 54 29 S 999,6 10 0,0
11.08.2018 10:00:00 17,0 10,6 35 19 54 29 S 999,7 10 0,0
11.08.2018 09:00:00 16,3 12,7 34 18 47 25 S 1000,3 10 0,0
11.08.2018 08:00:00 17,2 12,1 29 16 50 27 S 1000,5 10 0,0
11.08.2018 07:00:00 17,3 12,6 31 17 47 25 S 1000,8 10 0,0
11.08.2018 06:00:00 17,3 13,0 34 18 54 29 S 1000,9 10 0,0
11.08.2018 05:00:00 17,5 14,6 28 15 40 21 S 1000,9 10 0,0
11.08.2018 04:00:00 17,8 15,6 24 13 43 23 S 1001,5 10 0,0
11.08.2018 03:00:00 18,2 16,4 24 13 43 23 S 1001,7 10 0,0
11.08.2018 02:00:00 18,3 17,5 22 12 36 19 S 1002,0 10 0,0
11.08.2018 01:00:00 18,8 18,1 22 12 36 19 S 1002,5 6 0,0
11.08.2018 00:00:00 19,5 18,7 16 9 36 19 S 1003,0 10 0,0
10.08.2018 23:00:00 19,4 18,6 26 14 36 19 SSE 1003,5 10 0,0
10.08.2018 22:00:00 19,3 18,5 26 14 32 18 SSE 1004,0 10 0,0
10.08.2018 21:00:00 19,0 17,8 22 12 32 18 ESE 1004,8 10 0,1
10.08.2018 20:00:00 18,1 16,6 15 8 25 14 ESE 1005,9 10 3,0
10.08.2018 19:00:00 18,9 14,8 15 8 25 14 E 1006,9 10 0,3
10.08.2018 18:00:00 19,4 13,3 11 6 22 12 ENE 1008,0 10 0,0
10.08.2018 17:00:00 19,2 12,9 9 5 18 10 ENE 1009,5 10 0,1
10.08.2018 16:00:00 19,7 11,5 11 6 22 12 ENE 1010,6 10 0,0
10.08.2018 15:00:00 19,7 10,9 11 6 22 12 NE 1011,6 10 0,0
10.08.2018 14:00:00 19,6 11,4 9 5 18 10 ENE 1012,7 10 0,0
10.08.2018 13:00:00 19,5 11,3 13 7 18 10 E 1012,8 10 0,0
10.08.2018 12:00:00 19,7 9,9 11 6 22 12 E 1013,8 10 0,0
10.08.2018 11:00:00 19,4 9,9 11 6 22 12 ENE 1014,1 10 0,0
10.08.2018 10:00:00 18,4 8,9 9 5 18 10 NE 1014,5 10 0,0

tt = Température de l'air
td = dewpoint
ff = Vitesse du vent
fx = gusts
dd = Direction du vent
ppp = reduced air pressure
vv = visibility
rr = Quantités de précipitations

stations d'obs. à proximité